28-09-2023, 00:00:09,    189,    4.8,   13.8,   0.00,   0.00, 1007.0,   88.6, -999.0
28-09-2023, 00:00:19,    206,    2.4,   13.8,   0.00,   0.00, 1007.1,   88.5, -999.0
28-09-2023, 00:00:29,    229,    4.6,   13.8,   0.01,   0.00, 1007.1,   88.6, -999.0
28-09-2023, 00:00:39,    189,    3.3,   13.8,   0.00,   0.00, 1007.1,   88.7, -999.0
28-09-2023, 00:00:49,    202,    4.0,   13.8,   0.00,   0.00, 1007.1,   89.1, -999.0
28-09-2023, 00:00:59,    194,    2.1,   13.7,   0.00,   0.00, 1007.0,   89.2, -999.0
28-09-2023, 00:01:09,    219,    1.3,   13.8,   0.01,   0.00, 1007.0,   89.2, -999.0
28-09-2023, 00:01:19,    230,    2.9,   13.8,   0.00,   0.00, 1007.1,   89.3, -999.0
28-09-2023, 00:01:29,    187,    4.1,   13.7,   0.00,   0.00, 1007.2,   89.3, -999.0
28-09-2023, 00:01:39,    222,    2.2,   13.8,   0.00,   0.00, 1007.1,   89.6, -999.0
28-09-2023, 00:01:49,    219,    5.1,   13.8,   0.01,   0.00, 1007.1,   88.5, -999.0
28-09-2023, 00:01:59,    229,    7.2,   13.8,   0.00,   0.00, 1007.1,   87.4, -999.0
28-09-2023, 00:02:09,    201,    3.8,   13.8,   0.00,   0.00, 1007.0,   87.2, -999.0
28-09-2023, 00:02:19,    218,    4.7,   13.8,   0.01,   0.00, 1007.2,   86.5, -999.0
28-09-2023, 00:02:29,    216,    2.1,   13.8,   0.00,   0.00, 1007.0,   86.1, -999.0
28-09-2023, 00:02:39,    138,    4.9,   13.8,   0.00,   0.00, 1007.1,   85.6, -999.0
28-09-2023, 00:02:49,    256,    2.8,   13.8,   0.00,   0.00, 1007.1,   85.7, -999.0
28-09-2023, 00:02:59,    278,    4.5,   13.8,   0.01,   0.00, 1007.1,   85.8, -999.0
28-09-2023, 00:03:09,    205,    4.4,   13.8,   0.00,   0.00, 1007.1,   85.6, -999.0
28-09-2023, 00:03:19,    249,    1.1,   13.8,   0.00,   0.00, 1007.1,   85.4, -999.0
28-09-2023, 00:03:29,    238,    1.6,   13.8,   0.01,   0.00, 1007.1,   85.3, -999.0
28-09-2023, 00:03:38,    230,    3.7,   13.8,   0.00,   0.00, 1007.1,   85.2, -999.0
28-09-2023, 00:03:49,    215,    1.7,   13.8,   0.00,   0.00, 1007.1,   85.2, -999.0
28-09-2023, 00:03:59,    211,    2.8,   13.8,   0.00,   0.00, 1007.1,   85.3, -999.0
28-09-2023, 00:04:09,    241,    3.3,   13.8,   0.01,   0.00, 1007.1,   85.2, -999.0
28-09-2023, 00:04:18,    231,    5.2,   13.8,   0.00,   0.00, 1007.1,   85.2, -999.0
28-09-2023, 00:04:29,    221,    5.0,   13.8,   0.00,   0.00, 1007.1,   85.2, -999.0
28-09-2023, 00:04:39,    201,    3.0,   13.9,   0.01,   0.00, 1007.1,   85.4, -999.0
28-09-2023, 00:04:48,    228,    5.9,   13.9,   0.00,   0.00, 1007.1,   85.4, -999.0
28-09-2023, 00:04:59,    226,    5.2,   13.8,   0.00,   0.00, 1007.1,   85.5, -999.0
28-09-2023, 00:05:09,    185,    3.4,   13.8,   0.00,   0.00, 1007.1,   85.4, -999.0
28-09-2023, 00:05:18,    246,    3.0,   13.8,   0.01,   0.00, 1007.2,   85.5, -999.0
28-09-2023, 00:05:28,    249,    4.6,   13.8,   0.00,   0.00, 1007.3,   85.7, -999.0
28-09-2023, 00:05:39,    197,    6.7,   13.9,   0.00,   0.00, 1007.1,   85.5, -999.0
28-09-2023, 00:05:48,    197,    6.2,   13.8,   0.01,   0.00, 1007.1,   85.3, -999.0
28-09-2023, 00:05:58,    212,    2.7,   13.8,   0.00,   0.00, 1007.1,   85.2, -999.0
28-09-2023, 00:06:08,    246,    1.8,   13.8,   0.00,   0.00, 1007.2,   85.3, -999.0
28-09-2023, 00:06:18,    218,    6.0,   13.8,   0.00,   0.00, 1007.1,   85.3, -999.0
28-09-2023, 00:06:28,    174,    3.7,   13.9,   0.01,   0.00, 1007.1,   85.1, -999.0
28-09-2023, 00:06:38,    231,    4.5,   13.8,   0.00,   0.00, 1007.1,   85.1, -999.0
28-09-2023, 00:06:48,    211,    2.5,   13.8,   0.00,   0.00, 1007.1,   85.1, -999.0
28-09-2023, 00:06:58,    256,    4.7,   13.8,   0.00,   0.00, 1007.1,   85.3, -999.0
28-09-2023, 00:07:08,    172,    2.6,   13.8,   0.01,   0.00, 1007.1,   85.3, -999.0
28-09-2023, 00:07:18,    242,    3.2,   13.9,   0.00,   0.00, 1007.1,   85.4, -999.0
28-09-2023, 00:07:28,    203,    1.6,   13.8,   0.00,   0.00, 1007.1,   85.7, -999.0
28-09-2023, 00:07:38,    202,    0.6,   13.8,   0.01,   0.00, 1007.1,   85.6, -999.0
28-09-2023, 00:07:48,    201,    1.4,   13.8,   0.00,   0.00, 1007.2,   85.8, -999.0
28-09-2023, 00:07:58,    203,    2.8,   13.8,   0.00,   0.00, 1007.1,   86.1, -999.0
28-09-2023, 00:08:08,    183,    0.4,   13.8,   0.00,   0.00, 1007.0,   86.0, -999.0
28-09-2023, 00:08:18,    193,    3.0,   13.8,   0.01,   0.00, 1007.1,   86.3, -999.0
28-09-2023, 00:08:28,    185,    3.7,   13.8,   0.00,   0.00, 1007.1,   86.4, -999.0
28-09-2023, 00:08:38,    210,    3.0,   13.8,   0.00,   0.00, 1007.1,   86.3, -999.0
28-09-2023, 00:08:48,    213,    1.6,   13.8,   0.01,   0.00, 1007.1,   86.3, -999.0
28-09-2023, 00:08:58,    173,    3.6,   13.8,   0.00,   0.00, 1007.2,   86.4, -999.0
28-09-2023, 00:09:08,    201,    1.7,   13.7,   0.00,   0.00, 1007.2,   86.4, -999.0
28-09-2023, 00:09:18,    199,    2.8,   13.7,   0.00,   0.00, 1007.2,   86.4, -999.0
28-09-2023, 00:09:28,    226,    3.8,   13.8,   0.01,   0.00, 1007.1,   86.6, -999.0
28-09-2023, 00:09:38,    247,    2.8,   13.8,   0.00,   0.00, 1007.1,   86.8, -999.0
28-09-2023, 00:09:48,    194,    2.4,   13.8,   0.00,   0.00, 1007.2,   86.9, -999.0
28-09-2023, 00:09:58,    242,    1.3,   13.8,   0.01,   0.00, 1007.1,   87.0, -999.0
28-09-2023, 00:10:08,    210,    2.8,   13.7,   0.00,   0.00, 1007.1,   87.1, -999.0
28-09-2023, 00:10:18,    193,    2.9,   13.6,   0.00,   0.00, 1007.2,   87.2, -999.0
28-09-2023, 00:10:28,    187,    0.9,   13.7,   0.00,   0.00, 1007.2,   87.2, -999.0
28-09-2023, 00:10:37,    178,    3.2,   13.7,   0.01,   0.00, 1007.2,   87.3, -999.0
28-09-2023, 00:10:48,    198,    3.8,   13.8,   0.00,   0.00, 1007.1,   87.2, -999.0
28-09-2023, 00:10:58,    223,    2.5,   13.8,   0.00,   0.00, 1007.2,   87.1, -999.0
28-09-2023, 00:11:07,    213,    2.1,   13.7,   0.00,   0.00, 1007.1,   87.2, -999.0
28-09-2023, 00:11:18,    232,    1.7,   13.8,   0.01,   0.00, 1007.1,   87.1, -999.0
28-09-2023, 00:11:28,    193,    3.3,   13.8,   0.00,   0.00, 1007.2,   87.0, -999.0
28-09-2023, 00:11:37,    218,    5.1,   13.8,   0.00,   0.00, 1007.2,   87.1, -999.0
28-09-2023, 00:11:47,    199,    6.6,   13.7,   0.01,   0.00, 1007.1,   86.8, -999.0
28-09-2023, 00:11:58,    242,    8.4,   13.7,   0.00,   0.00, 1007.1,   86.2, -999.0
28-09-2023, 00:12:08,    209,    3.5,   13.8,   0.00,   0.00, 1007.1,   85.8, -999.0
28-09-2023, 00:12:17,    250,    4.4,   13.8,   0.00,   0.00, 1007.2,   85.7, -999.0
28-09-2023, 00:12:27,    206,    1.7,   13.8,   0.01,   0.00, 1007.2,   85.7, -999.0
28-09-2023, 00:12:38,    199,    4.7,   13.8,   0.00,   0.00, 1007.2,   85.6, -999.0
28-09-2023, 00:12:47,    207,    4.6,   13.8,   0.00,   0.00, 1007.2,   85.7, -999.0
28-09-2023, 00:12:57,    199,    4.4,   13.8,   0.01,   0.00, 1007.2,   85.5, -999.0
28-09-2023, 00:13:07,    221,    4.8,   13.8,   0.00,   0.00, 1007.2,   85.5, -999.0
28-09-2023, 00:13:17,    200,    3.2,   13.8,   0.00,   0.00, 1007.2,   85.5, -999.0
28-09-2023, 00:13:27,    204,    3.4,   13.7,   0.00,   0.00, 1007.2,   85.7, -999.0
28-09-2023, 00:13:37,    219,    3.8,   13.8,   0.01,   0.00, 1007.2,   85.7, -999.0
28-09-2023, 00:13:47,    225,    4.5,   13.8,   0.00,   0.00, 1007.2,   85.7, -999.0
28-09-2023, 00:13:57,    248,    3.8,   13.7,   0.00,   0.00, 1007.2,   85.8, -999.0
28-09-2023, 00:14:07,    207,    4.4,   13.8,   0.01,   0.00, 1007.2,   86.0, -999.0
28-09-2023, 00:14:17,    218,    3.6,   13.8,   0.00,   0.00, 1007.2,   86.2, -999.0
28-09-2023, 00:14:27,    230,    3.5,   13.7,   0.00,   0.00, 1007.2,   86.4, -999.0
28-09-2023, 00:14:37,    204,    3.8,   13.7,   0.00,   0.00, 1007.2,   86.5, -999.0
28-09-2023, 00:14:47,    218,    2.8,   13.8,   0.01,   0.00, 1007.2,   86.5, -999.0
28-09-2023, 00:14:57,    203,    5.3,   13.7,   0.00,   0.00, 1007.2,   86.6, -999.0
28-09-2023, 00:15:07,    240,    3.3,   13.7,   0.00,   0.00, 1007.2,   86.7, -999.0
28-09-2023, 00:15:17,    233,    2.2,   13.7,   0.01,   0.00, 1007.2,   86.8, -999.0
28-09-2023, 00:15:27,    227,    3.3,   13.7,   0.00,   0.00, 1007.2,   86.9, -999.0
28-09-2023, 00:15:37,    196,    1.9,   13.8,   0.00,   0.00, 1007.1,   87.1, -999.0
28-09-2023, 00:15:47,    192,    2.3,   13.7,   0.00,   0.00, 1007.1,   87.0, -999.0
28-09-2023, 00:15:57,    206,    2.4,   13.7,   0.01,   0.00, 1007.1,   87.0, -999.0
28-09-2023, 00:16:07,    206,    4.4,   13.7,   0.00,   0.00, 1007.1,   87.1, -999.0
28-09-2023, 00:16:17,    222,    3.6,   13.7,   0.00,   0.00, 1007.1,   87.1, -999.0
28-09-2023, 00:16:27,    193,    2.1,   13.6,   0.00,   0.00, 1007.1,   87.0, -999.0
28-09-2023, 00:16:37,    190,    2.3,   13.7,   0.01,   0.00, 1007.1,   87.0, -999.0
28-09-2023, 00:16:47,    237,    3.0,   13.7,   0.00,   0.00, 1007.2,   86.8, -999.0
28-09-2023, 00:16:57,    169,    5.2,   13.7,   0.00,   0.00, 1007.1,   86.9, -999.0
28-09-2023, 00:17:07,    254,    3.9,   13.7,   0.01,   0.00, 1007.2,   86.8, -999.0
28-09-2023, 00:17:17,    229,    5.0,   13.7,   0.00,   0.00, 1007.1,   86.8, -999.0
28-09-2023, 00:17:27,    225,    3.7,   13.7,   0.00,   0.00, 1007.1,   86.8, -999.0
28-09-2023, 00:17:36,    201,    4.0,   13.7,   0.00,   0.00, 1007.2,   86.8, -999.0
28-09-2023, 00:17:47,    190,    3.4,   13.7,   0.01,   0.00, 1007.1,   86.7, -999.0
28-09-2023, 00:17:57,    200,    1.5,   13.7,   0.00,   0.00, 1007.2,   87.1, -999.0
28-09-2023, 00:18:06,    204,    0.6,   13.7,   0.00,   0.00, 1007.2,   87.3, -999.0
28-09-2023, 00:18:17,    180,    2.0,   13.7,   0.01,   0.00, 1007.2,   87.5, -999.0
28-09-2023, 00:18:27,    178,    1.3,   13.7,   0.00,   0.00, 1007.2,   87.7, -999.0
28-09-2023, 00:18:36,    199,    2.0,   13.7,   0.00,   0.00, 1007.2,   87.7, -999.0
28-09-2023, 00:18:46,    202,    5.2,   13.6,   0.00,   0.00, 1007.3,   87.9, -999.0
28-09-2023, 00:18:57,    255,    6.4,   13.7,   0.01,   0.00, 1007.2,   87.6, -999.0
28-09-2023, 00:19:07,    210,    3.9,   13.7,   0.00,   0.00, 1007.2,   87.2, -999.0
28-09-2023, 00:19:16,    204,    6.3,   13.7,   0.00,   0.00, 1007.2,   87.3, -999.0
28-09-2023, 00:19:26,    197,    4.3,   13.7,   0.01,   0.00, 1007.2,   87.1, -999.0
28-09-2023, 00:19:37,    235,    5.1,   13.7,   0.00,   0.00, 1007.2,   86.9, -999.0
28-09-2023, 00:19:46,    282,    2.6,   13.7,   0.00,   0.00, 1007.1,   86.7, -999.0
28-09-2023, 00:19:56,    179,    3.2,   13.7,   0.00,   0.00, 1007.2,   86.7, -999.0
28-09-2023, 00:20:06,    197,    5.8,   13.7,   0.01,   0.00, 1007.2,   86.7, -999.0
28-09-2023, 00:20:16,    199,    4.3,   13.7,   0.00,   0.00, 1007.2,   86.5, -999.0
28-09-2023, 00:20:26,    239,    2.3,   13.7,   0.00,   0.00, 1007.2,   86.5, -999.0
28-09-2023, 00:20:36,    180,    1.6,   13.7,   0.00,   0.00, 1007.2,   86.5, -999.0
28-09-2023, 00:20:46,    232,    4.3,   13.7,   0.01,   0.00, 1007.2,   86.6, -999.0
28-09-2023, 00:20:56,    203,    6.2,   13.6,   0.00,   0.00, 1007.2,   86.7, -999.0
28-09-2023, 00:21:06,    190,    5.7,   13.7,   0.00,   0.00, 1007.2,   86.6, -999.0
28-09-2023, 00:21:16,    250,    4.7,   13.7,   0.01,   0.00, 1007.2,   86.4, -999.0
28-09-2023, 00:21:26,    213,    3.3,   13.7,   0.00,   0.00, 1007.2,   86.7, -999.0
28-09-2023, 00:21:36,    257,    1.0,   13.7,   0.00,   0.00, 1007.2,   86.6, -999.0
28-09-2023, 00:21:46,    235,    3.8,   13.7,   0.00,   0.00, 1007.1,   86.7, -999.0
28-09-2023, 00:21:56,    199,    2.3,   13.7,   0.01,   0.00, 1007.2,   87.3, -999.0
28-09-2023, 00:22:06,    178,    2.9,   13.7,   0.00,   0.00, 1007.2,   87.2, -999.0
28-09-2023, 00:22:16,    209,    3.8,   13.7,   0.00,   0.00, 1007.1,   86.9, -999.0
28-09-2023, 00:22:26,    191,    3.4,   13.7,   0.01,   0.00, 1007.2,   86.5, -999.0
28-09-2023, 00:22:36,    218,    3.8,   13.7,   0.00,   0.00, 1007.3,   86.7, -999.0
28-09-2023, 00:22:46,    175,    5.7,   13.7,   0.00,   0.00, 1007.2,   86.9, -999.0
28-09-2023, 00:22:56,    178,    4.0,   13.6,   0.00,   0.00, 1007.1,   86.4, -999.0
28-09-2023, 00:23:06,    206,    2.6,   13.7,   0.01,   0.00, 1007.2,   86.5, -999.0
28-09-2023, 00:23:16,    248,    3.0,   13.7,   0.00,   0.00, 1007.2,   86.0, -999.0
28-09-2023, 00:23:26,    211,    6.8,   13.7,   0.00,   0.00, 1007.2,   85.8, -999.0
28-09-2023, 00:23:36,    195,    6.0,   13.7,   0.01,   0.00, 1007.2,   85.5, -999.0
28-09-2023, 00:23:46,    253,    6.2,   13.7,   0.00,   0.00, 1007.2,   85.3, -999.0
28-09-2023, 00:23:55,    211,    1.1,   13.7,   0.00,   0.00, 1007.2,   85.3, -999.0
28-09-2023, 00:24:06,    211,    0.1,   13.6,   0.00,   0.00, 1007.1,   85.1, -999.0
28-09-2023, 00:24:16,    214,    0.5,   13.6,   0.01,   0.00, 1007.1,   85.3, -999.0
28-09-2023, 00:24:26,    255,    2.9,   13.7,   0.00,   0.00, 1007.2,   85.6, -999.0
28-09-2023, 00:24:36,    233,    2.2,   13.6,   0.00,   0.00, 1007.3,   85.7, -999.0
28-09-2023, 00:24:46,    222,    1.9,   13.6,   0.01,   0.00, 1007.3,   85.8, -999.0
28-09-2023, 00:24:56,    222,    0.7,   13.7,   0.00,   0.00, 1007.2,   85.9, -999.0
28-09-2023, 00:25:05,    253,    2.9,   13.6,   0.00,   0.00, 1007.2,   86.2, -999.0
28-09-2023, 00:25:16,    246,    2.4,   13.6,   0.00,   0.00, 1007.2,   86.2, -999.0
28-09-2023, 00:25:26,    219,    2.7,   13.7,   0.01,   0.00, 1007.2,   86.3, -999.0
28-09-2023, 00:25:35,    214,    5.1,   13.7,   0.00,   0.00, 1007.2,   86.4, -999.0
28-09-2023, 00:25:45,    233,    4.4,   13.7,   0.00,   0.00, 1007.2,   86.3, -999.0
28-09-2023, 00:25:56,    164,    2.8,   13.7,   0.01,   0.00, 1007.3,   86.2, -999.0
28-09-2023, 00:26:05,    203,    2.7,   13.7,   0.00,   0.00, 1007.3,   86.4, -999.0
28-09-2023, 00:26:15,    197,    4.8,   13.6,   0.00,   0.00, 1007.2,   86.4, -999.0
28-09-2023, 00:26:25,    243,    4.9,   13.6,   0.00,   0.00, 1007.3,   86.1, -999.0
28-09-2023, 00:26:36,    251,    6.2,   13.7,   0.01,   0.00, 1007.2,   86.3, -999.0
28-09-2023, 00:26:45,    166,    2.3,   13.6,   0.00,   0.00, 1007.3,   86.5, -999.0
28-09-2023, 00:26:55,    259,    4.0,   13.7,   0.00,   0.00, 1007.3,   86.7, -999.0
28-09-2023, 00:27:05,    222,    4.3,   13.7,   0.00,   0.00, 1007.3,   86.8, -999.0
28-09-2023, 00:27:15,    170,    1.5,   13.7,   0.01,   0.00, 1007.3,   86.6, -999.0
28-09-2023, 00:27:25,    216,    2.8,   13.7,   0.00,   0.00, 1007.3,   86.8, -999.0
28-09-2023, 00:27:35,    203,    2.3,   13.7,   0.00,   0.00, 1007.4,   87.1, -999.0
28-09-2023, 00:27:45,    233,    3.3,   13.7,   0.01,   0.00, 1007.3,   87.2, -999.0
28-09-2023, 00:27:55,    201,    5.3,   13.6,   0.00,   0.00, 1007.3,   86.9, -999.0
28-09-2023, 00:28:05,    192,    0.9,   13.6,   0.00,   0.00, 1007.3,   87.0, -999.0
28-09-2023, 00:28:15,    200,    0.5,   13.6,   0.00,   0.00, 1007.3,   87.1, -999.0
28-09-2023, 00:28:25,    204,    0.8,   13.6,   0.01,   0.00, 1007.2,   87.1, -999.0
28-09-2023, 00:28:35,    204,    1.9,   13.7,   0.00,   0.00, 1007.3,   87.3, -999.0
28-09-2023, 00:28:45,    217,    1.4,   13.7,   0.00,   0.00, 1007.3,   87.4, -999.0
28-09-2023, 00:28:55,    223,    3.0,   13.6,   0.01,   0.00, 1007.4,   87.5, -999.0
28-09-2023, 00:29:05,    239,    4.2,   13.6,   0.00,   0.00, 1007.3,   87.4, -999.0
28-09-2023, 00:29:15,    230,    4.4,   13.7,   0.00,   0.00, 1007.3,   87.3, -999.0
28-09-2023, 00:29:25,    229,    2.8,   13.7,   0.00,   0.00, 1007.4,   87.3, -999.0
28-09-2023, 00:29:35,    198,    3.6,   13.6,   0.01,   0.00, 1007.4,   87.2, -999.0
28-09-2023, 00:29:45,    173,    1.3,   13.7,   0.00,   0.00, 1007.4,   87.2, -999.0
28-09-2023, 00:29:55,    181,    1.3,   13.6,   0.00,   0.00, 1007.4,   87.2, -999.0
28-09-2023, 00:30:05,    199,    2.6,   13.6,   0.01,   0.00, 1007.4,   87.2, -999.0
28-09-2023, 00:30:15,    154,    4.6,   13.7,   0.00,   0.00, 1007.3,   87.0, -999.0
28-09-2023, 00:30:25,    181,    3.3,   13.6,   0.00,   0.00, 1007.4,   86.9, -999.0
28-09-2023, 00:30:35,    230,    3.3,   13.7,   0.00,   0.00, 1007.4,   87.1, -999.0
28-09-2023, 00:30:45,    251,    2.5,   13.6,   0.01,   0.00, 1007.4,   87.2, -999.0
28-09-2023, 00:30:54,    240,    2.1,   13.6,   0.00,   0.00, 1007.4,   87.2, -999.0
28-09-2023, 00:31:05,    219,    2.0,   13.5,   0.00,   0.00, 1007.4,   87.3, -999.0
28-09-2023, 00:31:15,    228,    2.1,   13.5,   0.00,   0.00, 1007.4,   87.4, -999.0
28-09-2023, 00:31:24,    230,    0.3,   13.6,   0.01,   0.00, 1007.4,   87.4, -999.0
28-09-2023, 00:31:35,    229,    0.0,   13.5,   0.00,   0.00, 1007.3,   87.3, -999.0
28-09-2023, 00:31:45,    203,    0.6,   13.6,   0.00,   0.00, 1007.4,   87.7, -999.0
28-09-2023, 00:31:55,    203,    0.0,   13.5,   0.01,   0.00, 1007.3,   87.4, -999.0
28-09-2023, 00:32:04,    247,    1.0,   13.5,   0.00,   0.00, 1007.3,   87.6, -999.0
28-09-2023, 00:32:15,    204,    1.1,   13.6,   0.00,   0.00, 1007.4,   87.8, -999.0
28-09-2023, 00:32:25,    187,    2.0,   13.6,   0.00,   0.00, 1007.4,   88.0, -999.0
28-09-2023, 00:32:34,    212,    3.4,   13.6,   0.01,   0.00, 1007.4,   87.8, -999.0
28-09-2023, 00:32:44,    217,    2.2,   13.6,   0.00,   0.00, 1007.4,   87.7, -999.0
28-09-2023, 00:32:55,    197,    1.0,   13.6,   0.00,   0.00, 1007.4,   88.0, -999.0
28-09-2023, 00:33:04,    203,    2.8,   13.6,   0.01,   0.00, 1007.4,   87.9, -999.0
28-09-2023, 00:33:14,    214,    4.9,   13.6,   0.00,   0.00, 1007.4,   87.7, -999.0
28-09-2023, 00:33:24,    191,    3.0,   13.6,   0.00,   0.00, 1007.5,   87.6, -999.0
28-09-2023, 00:33:34,    193,    0.7,   13.6,   0.00,   0.00, 1007.4,   87.4, -999.0
28-09-2023, 00:33:44,    219,    3.2,   13.6,   0.01,   0.00, 1007.4,   87.3, -999.0
28-09-2023, 00:33:54,    208,    1.9,   13.7,   0.00,   0.00, 1007.4,   87.2, -999.0
28-09-2023, 00:34:04,    233,    2.7,   13.6,   0.00,   0.00, 1007.4,   87.2, -999.0
28-09-2023, 00:34:14,    207,    2.7,   13.6,   0.01,   0.00, 1007.4,   87.1, -999.0
28-09-2023, 00:34:24,    222,    1.9,   13.6,   0.00,   0.00, 1007.5,   87.1, -999.0
28-09-2023, 00:34:34,    228,    5.1,   13.6,   0.00,   0.00, 1007.5,   87.2, -999.0
28-09-2023, 00:34:44,    248,    4.5,   13.6,   0.00,   0.00, 1007.5,   87.1, -999.0
28-09-2023, 00:34:54,    224,    2.1,   13.7,   0.01,   0.00, 1007.5,   87.2, -999.0
28-09-2023, 00:35:04,    193,    4.4,   13.6,   0.00,   0.00, 1007.5,   87.1, -999.0
28-09-2023, 00:35:14,    216,    5.4,   13.6,   0.00,   0.00, 1007.5,   87.1, -999.0
28-09-2023, 00:35:24,    175,    4.7,   13.6,   0.01,   0.00, 1007.6,   86.7, -999.0
28-09-2023, 00:35:34,    243,    3.7,   13.7,   0.00,   0.00, 1007.6,   86.6, -999.0
28-09-2023, 00:35:44,    229,    5.7,   13.7,   0.00,   0.00, 1007.5,   86.5, -999.0
28-09-2023, 00:35:54,    232,    3.7,   13.7,   0.00,   0.00, 1007.6,   86.1, -999.0
28-09-2023, 00:36:04,    209,    2.9,   13.7,   0.01,   0.00, 1007.5,   86.2, -999.0
28-09-2023, 00:36:14,    206,    1.8,   13.6,   0.00,   0.00, 1007.5,   86.3, -999.0
28-09-2023, 00:36:24,    172,    2.1,   13.7,   0.00,   0.00, 1007.5,   86.3, -999.0
28-09-2023, 00:36:34,    233,    4.3,   13.7,   0.00,   0.00, 1007.5,   86.4, -999.0
28-09-2023, 00:36:44,    288,    1.9,   13.7,   0.01,   0.00, 1007.6,   86.2, -999.0
28-09-2023, 00:36:54,    251,    0.6,   13.5,   0.00,   0.00, 1007.6,   86.1, -999.0
28-09-2023, 00:37:04,    230,    1.7,   13.7,   0.00,   0.00, 1007.6,   86.3, -999.0
28-09-2023, 00:37:14,    227,    4.5,   13.7,   0.01,   0.00, 1007.6,   86.5, -999.0
28-09-2023, 00:37:24,    245,    5.6,   13.7,   0.00,   0.00, 1007.6,   86.1, -999.0
28-09-2023, 00:37:34,    216,    3.7,   13.7,   0.00,   0.00, 1007.6,   86.0, -999.0
28-09-2023, 00:37:44,    213,    1.8,   13.6,   0.00,   0.00, 1007.5,   85.9, -999.0
28-09-2023, 00:37:54,    209,    4.1,   13.7,   0.01,   0.00, 1007.6,   86.0, -999.0
28-09-2023, 00:38:04,    189,    4.4,   13.7,   0.00,   0.00, 1007.6,   85.9, -999.0
28-09-2023, 00:38:14,    234,    2.6,   13.7,   0.00,   0.00, 1007.6,   85.7, -999.0
28-09-2023, 00:38:23,    194,    1.2,   13.6,   0.01,   0.00, 1007.6,   85.7, -999.0
28-09-2023, 00:38:34,    206,    0.2,   13.6,   0.00,   0.00, 1007.5,   85.7, -999.0
28-09-2023, 00:38:44,    207,    1.3,   13.7,   0.00,   0.00, 1007.6,   86.0, -999.0
28-09-2023, 00:38:53,    210,    2.2,   13.6,   0.00,   0.00, 1007.6,   85.9, -999.0
28-09-2023, 00:39:03,    227,    3.2,   13.6,   0.01,   0.00, 1007.6,   86.0, -999.0
28-09-2023, 00:39:14,    200,    4.2,   13.7,   0.00,   0.00, 1007.5,   85.8, -999.0
28-09-2023, 00:39:24,    168,    3.1,   13.7,   0.00,   0.00, 1007.5,   85.6, -999.0
28-09-2023, 00:39:33,    222,    2.9,   13.7,   0.01,   0.00, 1007.5,   85.8, -999.0
28-09-2023, 00:39:43,    184,    1.4,   13.6,   0.00,   0.00, 1007.5,   85.9, -999.0
28-09-2023, 00:39:54,    191,    2.5,   13.6,   0.00,   0.00, 1007.6,   86.1, -999.0
28-09-2023, 00:40:03,    216,    3.4,   13.6,   0.00,   0.00, 1007.5,   86.2, -999.0
28-09-2023, 00:40:13,    210,    4.7,   13.6,   0.01,   0.00, 1007.6,   86.2, -999.0
28-09-2023, 00:40:23,    203,    3.9,   13.6,   0.00,   0.00, 1007.6,   86.3, -999.0
28-09-2023, 00:40:33,    212,    2.7,   13.6,   0.00,   0.00, 1007.6,   86.0, -999.0
28-09-2023, 00:40:43,    211,    2.4,   13.6,   0.00,   0.00, 1007.6,   86.1, -999.0
28-09-2023, 00:40:53,    212,    3.5,   13.6,   0.01,   0.00, 1007.6,   85.7, -999.0
28-09-2023, 00:41:03,    196,    4.8,   13.7,   0.00,   0.00, 1007.6,   85.4, -999.0
28-09-2023, 00:41:13,    209,    2.2,   13.6,   0.00,   0.00, 1007.6,   85.2, -999.0
28-09-2023, 00:41:23,    213,    3.4,   13.6,   0.01,   0.00, 1007.6,   85.2, -999.0
28-09-2023, 00:41:33,    171,    2.6,   13.7,   0.00,   0.00, 1007.6,   85.2, -999.0
28-09-2023, 00:41:43,    206,    3.3,   13.7,   0.00,   0.00, 1007.6,   85.3, -999.0
28-09-2023, 00:41:53,    204,    1.4,   13.6,   0.00,   0.00, 1007.6,   85.2, -999.0
28-09-2023, 00:42:03,    262,    0.7,   13.6,   0.01,   0.00, 1007.6,   85.2, -999.0
28-09-2023, 00:42:13,    225,    0.8,   13.6,   0.00,   0.00, 1007.5,   85.1, -999.0
28-09-2023, 00:42:23,    178,    5.2,   13.6,   0.00,   0.00, 1007.6,   85.2, -999.0
28-09-2023, 00:42:33,    229,    2.9,   13.7,   0.01,   0.00, 1007.6,   85.3, -999.0
28-09-2023, 00:42:43,    225,    1.1,   13.7,   0.00,   0.00, 1007.6,   85.4, -999.0
28-09-2023, 00:42:53,    261,    2.0,   13.7,   0.00,   0.00, 1007.6,   85.7, -999.0
28-09-2023, 00:43:03,    239,    1.5,   13.6,   0.00,   0.00, 1007.7,   85.7, -999.0
28-09-2023, 00:43:13,    197,    3.1,   13.6,   0.01,   0.00, 1007.6,   85.5, -999.0
28-09-2023, 00:43:23,    242,    4.4,   13.7,   0.00,   0.00, 1007.6,   85.2, -999.0
28-09-2023, 00:43:33,    230,    2.5,   13.6,   0.00,   0.00, 1007.6,   85.0, -999.0
28-09-2023, 00:43:43,    224,    4.4,   13.6,   0.01,   0.00, 1007.6,   85.0, -999.0
28-09-2023, 00:43:53,    227,    2.5,   13.6,   0.00,   0.00, 1007.6,   85.0, -999.0
28-09-2023, 00:44:03,    210,    2.7,   13.7,   0.00,   0.00, 1007.6,   85.1, -999.0
28-09-2023, 00:44:13,    185,    4.2,   13.7,   0.00,   0.00, 1007.6,   85.3, -999.0
28-09-2023, 00:44:23,    200,    4.5,   13.6,   0.01,   0.00, 1007.6,   85.3, -999.0
28-09-2023, 00:44:33,    197,    1.7,   13.6,   0.00,   0.00, 1007.7,   85.4, -999.0
28-09-2023, 00:44:43,    253,    1.4,   13.6,   0.00,   0.00, 1007.7,   85.6, -999.0
28-09-2023, 00:44:53,    169,    0.9,   13.6,   0.01,   0.00, 1007.6,   85.6, -999.0
28-09-2023, 00:45:03,    208,    2.7,   13.6,   0.00,   0.00, 1007.7,   85.8, -999.0
28-09-2023, 00:45:13,    191,    2.6,   13.6,   0.00,   0.00, 1007.6,   85.7, -999.0
28-09-2023, 00:45:22,    224,    2.4,   13.7,   0.00,   0.00, 1007.6,   85.8, -999.0
28-09-2023, 00:45:33,    191,    2.1,   13.6,   0.01,   0.00, 1007.7,   85.9, -999.0
28-09-2023, 00:45:43,    192,    1.6,   13.6,   0.00,   0.00, 1007.6,   85.9, -999.0
28-09-2023, 00:45:52,    201,    1.2,   13.6,   0.00,   0.00, 1007.7,   85.9, -999.0
28-09-2023, 00:46:02,    215,    1.7,   13.6,   0.00,   0.00, 1007.7,   86.1, -999.0
28-09-2023, 00:46:13,    220,    2.6,   13.5,   0.01,   0.00, 1007.7,   86.2, -999.0
28-09-2023, 00:46:22,    187,    2.6,   13.7,   0.00,   0.00, 1007.7,   85.9, -999.0
28-09-2023, 00:46:32,    256,    2.9,   13.6,   0.00,   0.00, 1007.8,   85.9, -999.0
28-09-2023, 00:46:42,    257,    2.2,   13.6,   0.01,   0.00, 1007.8,   85.9, -999.0
28-09-2023, 00:46:52,    232,    2.5,   13.6,   0.00,   0.00, 1007.7,   85.9, -999.0